Location: Plainartige
(45.6866°N, 1.7993°E)
Time: 16:02:19
(UTC+00:00)

Tiros 1 - Pass Details

Date: 01 June 2022
Orbit: 629 x 663 km, 48.4° (Epoch: 05 July)

Event Time Altitude Azimuth Distance (km) Brightness Sun altitude
Rises 03:24:02 0° 290° (WNW) 2,926 10.2 -6.8°
Reaches altitude 10° 03:26:22 10° 287° (WNW) 2,020 9.4 -6.5°
Maximum altitude 03:30:58 66° 206° (SSW) 697 7.1 -5.9°
Drops below altitude 10° 03:35:37 10° 125° (SE) 2,033 9.9 -5.2°
Sets 03:37:58 0° 122° (ESE) 2,947 10.8 -4.9°
